Hourly Data Report for October 08, 2013

All times are specified in Local Standard Time (LST). Add 1 hour to adjust for Daylight Saving Time where and when it is observed.

PANGNIRTUNG
NUNAVUT

66°08'36.300" N
65°42'40.500" W
22.60 m
2403049
71826
WXP

Download Data

Hourly Data (October 2013)
Hourly Data Report for October 8, 2013
Temp Definition
°C
Dew Point Temp Definition
°C
Rel Hum Definition
%
Wind Dir Definition
10's deg

Wind Spd Definition
km/h
Visibility Definition
km
Stn Press Definition
kPa
Hmdx Definition


Wind Chill Definition


Weather Definition


TIME
00:00 -2.5 -10.1 56 7 19   100.69   -8 LegendNANA
01:00 -2.1 -10.5 53 8 22   100.53   -8 LegendNANA
02:00 -1.5 -10.0 52 8 17   100.45   -7 LegendNANA
03:00 -1.1 -9.9 51 7 22   100.30   -7 LegendNANA
04:00 -0.6 -9.5 51 8 26   100.13   -7 LegendNANA
05:00 0.6 -7.6 54 7 28   99.98     LegendNANA
06:00 1.0 -7.4 53 6 28   99.87     LegendNANA
07:00 0.9 -7.2 55 7 24   99.71     LegendNANA
08:00 1.7 -6.6 54 7 39   99.48     LegendNANA
09:00 1.8 -6.2 55 7 37   99.29     LegendNANA
10:00 1.7 -6.4 55 5 30   99.13     LegendNANA
11:00 0.9 -4.1 69 7 35   99.03     LegendNANA
12:00 0.5 -4.8 68 7 33   98.82     LegendNANA
13:00 0.7 -4.8 67 7 39   98.49     LegendNANA
14:00 1.4 -4.8 63 7 35   98.30     LegendNANA
15:00 1.6 -4.8 62 6 35   98.11     LegendNANA
16:00 1.1 -4.0 69 6 43   98.03     LegendNANA
17:00 0.3 -3.4 76 7 43   97.95     LegendNANA
18:00 -0.4 -2.5 86 6 39   97.94   -8 LegendNANA
19:00 -0.7 -2.1 90 5 33   97.97   -8 LegendNANA
20:00 -1.0 -2.0 93 5 32   98.02   -8 LegendNANA
21:00 -1.0 -1.7 95 6 30   98.09   -8 LegendNANA
22:00 -0.9 -2.0 92 7 24   98.16   -7 LegendNANA
23:00 -0.2 -2.4 85 7 24   98.21   -6 LegendNANA

Notes on Data Quality.

Legend

  • E = Estimated
  • M = Missing
  • NA = Not Available
  • ‡ = Partner data that is not subject to review by the National Climate Archives
Date modified: